Terminal Aerodrome Forecast
Issued by NWS Mt. Holly, NJ

Home | Current Version | Previous Version | Text Only | Print | Product List | Glossary On
Versions: 1 2 3 4 5 6 7 8 9 10 11 12 13 14 15 16 17 18 19 20
000
FTUS41 KPHI 010100 AAA
TAFABE
TAF AMD
KABE 010109Z 0101/0124 04006KT P6SM OVC050
     FM010400 04005KT P6SM -RA OVC025
      TEMPO 0107/0111 3SM RA BKN009
     FM011100 04010G18KT 5SM -RA OVC020
     FM011600 01014G24KT 5SM -RA OVC020
     FM012100 36014G24KT 5SM -SHRA OVC030=

USA.gov is the U.S. government's official web portal to all federal, state and local government web resources and services.